{"data":{"norad_id":64073,"epoch":"2026-05-24T23:52:02.340192Z","epoch_age_seconds":78629,"freshness":"FRESH","line1":"1 64073U 25107K   26144.99447153  .00208784  00000+0  15776-2 0  9990","line2":"2 64073  43.0002 358.7534 0001122  44.8214 315.2744 15.71027347 59293","mean_motion":15.71027347,"eccentricity":0.0001122,"inclination_deg":43.0002,"raan_deg":358.7534,"arg_perigee_deg":44.8214,"mean_anomaly_deg":315.2744,"bstar":0.0015776,"rev_number":5929,"period_min":91.659766632948,"perigee_km":355.20407635062,"apogee_km":356.71520763708,"semimajor_km":6734.0966419939,"source":"CELESTRAK","updated_at":"2026-05-25T13:38:20.259433Z"}}